IRIDIUM 159

Last updated on Fri Sep 11 2026 00:03:06 GMT+0000 (Coordinated Universal Time)

1 43578U 18061K 26253.39359137 .00000106 00000+0 30900-4 0 9993 2 43578 86.3996 21.0659 0002201 95.0128 265.1319 14.34217769425599
UTC large
Height (km)
Speed (km/s)
/
Latitude / Longitude
Inclination (degrees)
Orbital Period (minutes)
Azimuth
Elevation
Range (km)
Doppler Factor

Next 0 passes for location: London (51.5072 / 0.1276)

No passes found over London.
IRIDIUM 159